Weather reports worldwide

Advertisment
Tulloch Bridge, United Kingdom (3047): temperature & dewpoint: 09.09.2019 09:00:00 - 15.09.2019 09:00:00 (BST)Tulloch Bridge, United Kingdom (3047): temperature -20cm & temperature -100cm: 09.09.2019 09:00:00 - 15.09.2019 09:00:00 (BST)Tulloch Bridge, United Kingdom (3047): wind speed & gusts: 09.09.2019 09:00:00 - 15.09.2019 09:00:00 (BST)Tulloch Bridge, United Kingdom (3047): wind direction: 09.09.2019 09:00:00 - 15.09.2019 09:00:00 (BST)Tulloch Bridge, United Kingdom (3047): reduced air pressure: 09.09.2019 09:00:00 - 15.09.2019 09:00:00 (BST)Tulloch Bridge, United Kingdom (3047): visibility: 09.09.2019 09:00:00 - 15.09.2019 09:00:00 (BST)Tulloch Bridge, United Kingdom (3047): precipitation: 09.09.2019 09:00:00 - 15.09.2019 09:00:00 (BST)
Date & Time tt [°C] td [°C] tt -20cm [°C] tt -100cm [°C] ff [km/h] ff [kn] fx [km/h] fx [kn] dd ppp [hPa] vv [km] rr [mm]
15.09.2019 09:00:00 9,8 4,0 - - 16 9 - - W 1020,6 17 0,0
15.09.2019 08:00:00 9,3 3,9 - - 16 9 - - W 1020,3 15 0,0
15.09.2019 07:00:00 9,2 3,2 - - 15 8 46 25 SSW 1020,0 18 0,0
15.09.2019 06:00:00 8,9 3,7 - - 11 6 46 25 W 1019,5 16 0,0
15.09.2019 05:00:00 9,2 3,5 - - 15 8 46 25 W 1019,2 21 0,0
15.09.2019 04:00:00 9,2 5,5 - - 8 4 - - N 1019,0 15 0,0
15.09.2019 03:00:00 10,0 5,8 - - 11 6 50 27 SSW 1018,4 14 0,0
15.09.2019 02:00:00 10,1 5,2 - - 13 7 52 28 SSW 1018,0 17 0,0
15.09.2019 01:00:00 11,1 6,7 - - 15 8 48 26 WSW 1017,4 19 0,0
15.09.2019 00:00:00 11,1 6,5 - - 18 10 - - SSW 1017,3 17 0,0
14.09.2019 23:00:00 10,2 7,7 - - 15 8 68 37 WSW 1017,6 30 0,2
14.09.2019 22:00:00 10,4 8,1 - - 24 13 68 37 WNW 1017,9 20 2,8
14.09.2019 21:00:00 11,3 10,3 - - 24 13 57 31 W 1017,4 5 3,4
14.09.2019 20:00:00 13,6 12,5 - - 26 14 55 30 W 1016,1 3,9 1,6
14.09.2019 19:00:00 14,8 12,6 - - 28 15 57 31 SW 1015,8 6 1,4
14.09.2019 18:00:00 14,3 12,7 - - 31 17 57 31 SSW 1016,5 5 3,0
14.09.2019 17:00:00 14,1 12,3 - - 34 18 65 35 SSW 1016,9 9 1,6
14.09.2019 16:00:00 13,7 11,7 - - 26 14 52 28 SW 1017,8 11 0,0
14.09.2019 15:00:00 12,7 11,2 - - 35 19 59 32 SSW 1019,0 7 0,2
14.09.2019 14:00:00 12,8 10,5 - - 39 21 55 30 SSW 1020,0 9 0,0
14.09.2019 13:00:00 12,0 10,3 - - 34 18 57 31 SSW 1021,3 50 0,2
14.09.2019 12:00:00 11,1 10,4 - - 29 16 54 29 SSW 1022,2 3,7 0,6
14.09.2019 11:00:00 11,1 10,0 - - 34 18 59 32 SSW 1023,2 8 0,2
14.09.2019 10:00:00 10,3 9,3 13,4 13,7 29 16 57 31 SSW 1024,1 7 0,8
14.09.2019 09:00:00 10,8 8,7 - - 21 11 52 28 SSW 1025,5 5 0,0
14.09.2019 08:00:00 11,3 7,7 - - 28 15 46 25 SSW 1025,8 6 0,0
14.09.2019 07:00:00 12,4 6,7 - - 28 15 - - SSW 1026,2 13 0,0
14.09.2019 06:00:00 11,6 7,4 - - 21 11 - - SSW 1027,4 45 0,0
14.09.2019 05:00:00 10,9 8,0 - - 15 8 - - S 1029,2 40 0,0
14.09.2019 04:00:00 10,8 7,8 - - 11 6 - - SW 1030,1 30 0,0
14.09.2019 03:00:00 10,6 7,5 - - 15 8 - - SSW 1031,7 35 0,0
14.09.2019 02:00:00 10,1 7,9 - - 16 9 - - SSW 1032,7 35 0,0
14.09.2019 01:00:00 10,4 8,1 - - 16 9 - - S 1033,2 27 0,0
14.09.2019 00:00:00 10,8 8,1 - - 18 10 - - SSW 1033,9 29 0,0
13.09.2019 23:00:00 10,6 8,1 - - 16 9 - - SSW 1034,0 18 0,2
13.09.2019 22:00:00 10,2 8,3 - - 9 5 - - SW 1034,3 23 0,0
13.09.2019 21:00:00 10,2 8,3 - - 13 7 - - SW 1034,5 24 0,0
13.09.2019 20:00:00 10,1 8,2 - - 13 7 - - SW 1034,6 12 0,0
13.09.2019 19:00:00 10,6 8,6 - - 11 6 - - SSW 1034,3 27 0,0
13.09.2019 18:00:00 10,7 8,5 - - 15 8 - - SSW 1034,3 30 0,0
13.09.2019 17:00:00 12,4 6,2 - - 16 9 - - W 1034,1 35 0,0
13.09.2019 16:00:00 13,1 5,2 - - 16 9 - - W 1033,7 30 0,0
13.09.2019 15:00:00 13,1 6,6 - - 18 10 - - SSW 1033,9 35 0,0
13.09.2019 14:00:00 14,8 5,2 - - 16 9 - - SSW 1033,6 40 0,0
13.09.2019 13:00:00 12,9 4,8 - - 13 7 - - SW 1033,5 40 0,0
13.09.2019 12:00:00 12,7 5,2 - - 18 10 - - SW 1033,2 30 0,0
13.09.2019 11:00:00 12,4 5,2 - - 18 10 - - SW 1033,2 26 0,0
13.09.2019 10:00:00 11,7 6,7 13,5 8,4 9 5 - - SW 1032,5 28 0,0
13.09.2019 09:00:00 9,2 6,9 - - 5 3 - - WNW 1032,3 24 0,0
13.09.2019 08:00:00 9,9 6,1 - - 8 4 - - SW 1031,7 30 0,0
13.09.2019 07:00:00 8,5 6,5 - - 9 5 - - NW 1031,6 30 0,0
13.09.2019 06:00:00 8,6 5,9 - - 8 4 - - W 1030,8 30 0,0
13.09.2019 05:00:00 8,9 7,2 - - 15 8 - - WNW 1029,8 23 0,0
13.09.2019 04:00:00 8,9 7,2 - - 9 5 - - NNW 1029,5 40 0,0
13.09.2019 03:00:00 9,2 6,4 - - 8 4 - - W 1028,8 35 0,0
13.09.2019 02:00:00 9,1 7,0 - - 8 4 - - WNW 1028,7 19 0,2
13.09.2019 01:00:00 9,2 7,1 - - 13 7 - - W 1028,2 16 1,0
13.09.2019 00:00:00 9,9 5,6 - - 18 10 - - SSW 1027,3 50 0,2
12.09.2019 23:00:00 9,5 6,8 - - 8 4 - - WNW 1026,7 15 0,0
12.09.2019 22:00:00 10,2 5,8 - - 8 4 - - W 1026,1 30 0,0
12.09.2019 21:00:00 9,8 6,0 - - 8 4 - - W 1025,5 40 0,0
12.09.2019 20:00:00 10,1 5,2 - - 9 5 - - SSW 1024,6 50 0,0
12.09.2019 19:00:00 11,4 6,1 - - 11 6 - - W 1023,7 40 0,0
12.09.2019 18:00:00 12,0 6,5 - - 11 6 - - W 1022,9 35 0,0
12.09.2019 17:00:00 13,7 6,9 - - 9 5 - - W 1021,6 45 0,0
12.09.2019 16:00:00 12,7 7,2 - - 15 8 - - W 1021,0 45 0,0
12.09.2019 15:00:00 14,2 8,5 - - 13 7 - - WSW 1019,9 45 0,0
12.09.2019 14:00:00 12,3 8,6 - - 15 8 - - SW 1019,4 50 0,0
12.09.2019 13:00:00 12,5 8,7 - - 15 8 - - WSW 1018,7 45 0,0
12.09.2019 12:00:00 12,0 10,1 - - 8 4 - - WNW 1018,1 24 0,0
12.09.2019 11:00:00 11,3 9,5 - - 8 4 - - W 1017,9 10 0,2
12.09.2019 10:00:00 11,4 9,8 13,7 13,7 4 2 - - S 1017,3 16 0,0
12.09.2019 09:00:00 10,8 9,5 - - 15 8 - - WNW 1017,0 35 0,0
12.09.2019 08:00:00 10,5 8,6 - - 8 4 - - WSW 1016,9 45 0,0
12.09.2019 07:00:00 10,4 8,5 - - 16 9 - - SW 1016,6 15 0,0
12.09.2019 06:00:00 11,3 7,6 - - 11 6 - - WSW 1016,0 50 0,0
12.09.2019 05:00:00 11,1 7,5 - - 8 4 - - WSW 1016,0 27 0,0
12.09.2019 04:00:00 11,0 7,8 - - 8 4 - - W 1016,0 50 0,0
12.09.2019 03:00:00 10,3 8,8 - - 9 5 - - NNW 1016,0 50 0,0
12.09.2019 02:00:00 10,4 9,2 - - 8 4 - - WNW 1016,3 22 0,0
12.09.2019 01:00:00 11,6 8,1 - - 9 5 - - W 1015,7 50 0,0
12.09.2019 00:00:00 10,9 8,7 - - 8 4 - - SSW 1015,6 50 0,2
11.09.2019 23:00:00 10,8 9,5 - - 9 5 - - W 1015,5 13 0,4
11.09.2019 22:00:00 11,8 8,6 - - 15 8 - - W 1015,0 45 0,0
11.09.2019 21:00:00 12,0 8,0 - - 9 5 - - W 1014,6 50 0,0
11.09.2019 20:00:00 12,7 8,0 - - 11 6 - - W 1013,7 45 0,0
11.09.2019 19:00:00 12,9 8,3 - - 11 6 50 27 SW 1013,0 50 0,0
11.09.2019 18:00:00 12,3 9,2 - - 22 12 48 26 WNW 1012,2 35 0,2
11.09.2019 17:00:00 12,7 9,1 - - 24 13 55 30 WNW 1012,0 26 0,0
11.09.2019 16:00:00 13,8 7,6 - - 18 10 50 27 WSW 1011,2 26 0,0
11.09.2019 15:00:00 13,8 8,3 - - 16 9 48 26 SW 1010,4 30 0,0
11.09.2019 14:00:00 12,4 8,5 - - 22 12 54 29 W 1009,9 7 0,0
11.09.2019 13:00:00 13,5 7,8 - - 24 13 50 27 SSW 1008,5 50 0,0
11.09.2019 12:00:00 13,2 7,3 - - 16 9 59 32 SW 1007,7 50 0,0
11.09.2019 11:00:00 12,2 9,0 - - 11 6 - - W 1007,0 8 0,2
11.09.2019 10:00:00 12,1 7,7 13,9 13,9 13 7 - - WSW 1006,5 30 0,0
11.09.2019 09:00:00 12,3 7,8 - - 13 7 - - SW 1005,3 45 0,0
11.09.2019 08:00:00 11,5 9,4 - - 13 7 - - WNW 1004,7 14 0,6
11.09.2019 07:00:00 11,3 9,6 - - 18 10 - - WNW 1003,8 7 1,2
11.09.2019 06:00:00 12,9 8,8 - - 26 14 - - SW 1002,6 24 0,0
11.09.2019 05:00:00 13,1 8,1 - - 16 9 - - SW 1002,5 45 0,0
11.09.2019 04:00:00 13,6 9,7 - - 15 8 57 31 SW 1002,4 50 0,4
11.09.2019 03:00:00 14,8 13,0 - - 21 11 - - SW 1002,1 6 1,2
11.09.2019 02:00:00 14,3 13,4 - - 18 10 - - SSW 1002,7 5 1,6
11.09.2019 01:00:00 13,8 13,0 - - 24 13 50 27 SW 1002,6 6 1,0
11.09.2019 00:00:00 13,3 12,5 - - 24 13 - - SSW 1003,7 4,6 2,2
10.09.2019 23:00:00 12,3 11,3 - - 28 15 54 29 SSW 1004,9 7 2,0
10.09.2019 22:00:00 11,7 10,6 - - 21 11 46 25 SSW 1005,5 11 1,4
10.09.2019 21:00:00 11,1 9,7 - - 26 14 - - SSW 1007,9 11 3,0
10.09.2019 20:00:00 10,4 9,1 - - 18 10 50 27 S 1009,0 9 0,8
10.09.2019 19:00:00 10,3 8,8 - - 22 12 54 29 S 1009,8 14 0,2
10.09.2019 18:00:00 10,4 8,0 - - 26 14 - - SSW 1011,4 16 0,0
10.09.2019 17:00:00 11,8 6,2 - - 21 11 - - S 1012,4 40 0,0
10.09.2019 16:00:00 12,2 6,5 - - 11 6 - - SSW 1013,7 35 0,0
10.09.2019 15:00:00 13,3 7,6 - - 21 11 - - S 1014,5 24 0,0
10.09.2019 14:00:00 13,4 7,0 - - 15 8 - - S 1015,3 30 0,0
10.09.2019 13:00:00 13,9 7,3 - - 21 11 - - S 1016,0 24 0,0
10.09.2019 12:00:00 12,3 6,3 - - 18 10 - - S 1016,4 45 0,0
10.09.2019 11:00:00 12,7 6,2 - - 11 6 - - S 1016,9 35 0,0
10.09.2019 10:00:00 11,0 7,6 14,0 13,9 4 2 - - NNE 1018,0 40 0,0
10.09.2019 09:00:00 9,9 8,7 - - 4 2 - - ENE 1018,5 45 0,0
10.09.2019 08:00:00 6,9 6,9 - - 0 0 - - N 1018,7 18 0,0
10.09.2019 07:00:00 5,9 5,5 - - 4 2 - - S 1018,2 0,5 0,0
10.09.2019 06:00:00 8,0 6,9 - - 4 2 - - N 1017,7 50 0,0
10.09.2019 05:00:00 9,1 8,6 - - 2 1 - - N 1017,5 45 0,0
10.09.2019 04:00:00 9,3 8,8 - - 4 2 - - NNE 1017,5 35 0,0
10.09.2019 03:00:00 9,4 8,8 - - 5 3 - - ENE 1017,4 45 0,0
10.09.2019 02:00:00 10,3 8,6 - - 8 4 - - WNW 1017,3 50 0,0
10.09.2019 01:00:00 9,8 9,0 - - 5 3 50 27 ENE 1016,9 50 0,0
10.09.2019 00:00:00 10,8 8,1 - - 8 4 - - WNW 1016,5 50 0,0
09.09.2019 23:00:00 10,9 8,4 - - 9 5 - - WNW 1016,2 50 0,0
09.09.2019 22:00:00 11,2 8,4 - - 9 5 - - W 1015,8 50 0,0
09.09.2019 21:00:00 11,3 8,8 - - 13 7 - - WNW 1015,1 50 0,0
09.09.2019 20:00:00 11,5 9,2 - - 13 7 - - W 1014,3 50 0,0
09.09.2019 19:00:00 11,8 9,7 - - 11 6 - - W 1013,3 45 0,0
09.09.2019 18:00:00 12,0 10,3 - - 13 7 - - W 1012,4 45 0,0
09.09.2019 17:00:00 12,4 10,9 - - 15 8 - - W 1011,6 17 0,0
09.09.2019 16:00:00 13,8 11,2 - - 9 5 - - NW 1010,7 30 0,0
09.09.2019 15:00:00 12,9 11,0 - - 4 2 - - SSE 1010,5 45 0,0
09.09.2019 14:00:00 12,2 10,9 - - 11 6 - - WNW 1010,3 14 0,4
09.09.2019 13:00:00 13,0 11,2 - - 5 3 - - S 1009,8 28 0,0
09.09.2019 12:00:00 12,6 11,2 - - 4 2 - - S 1009,5 16 0,0
09.09.2019 11:00:00 12,4 11,2 - - 4 2 - - SE 1009,5 23 0,4
09.09.2019 10:00:00 11,7 10,9 13,7 14,0 5 3 - - S 1009,5 23 0,0
09.09.2019 09:00:00 11,2 11,0 - - 4 2 - - E 1009,4 13 0,8

tt = temperature
td = dewpoint
tt -20cm = temperature -20cm
tt -100cm = temperature -100cm
ff = wind speed
fx = gusts
dd = wind direction
ppp = reduced air pressure
vv = visibility
rr = precipitation

Next stations